Weather in Anisimovka

Russia / Primorsky Krai     43°10′12″N   132°47′22″E
temp.,
°C
wind,
m/s
gust,
m/s
humid.,
%
clouds,
%
prec.,
mm/h
press.,
hPa
HPBL,
m
11 may, tue
tue1101:00+3w119718 0.0 101515
04:00+3nne119752 0.0 101522
07:00+4nne11907 0.0 101650
10:00+11nnw365725 0.0 10161331
13:00+13nnw344980 0.0 10161813
16:00+14nw334533 0.1 10161795
19:00+13ssw12603 0.0 1016132
22:00+5se22950 0.0 102035
12 may, wed
wed1201:00+3se229710 0.0 102140
04:00+2ese239821 0.0 102173
07:00+3ese249344 0.0 1020131
10:00+11sse3759100 0.0 1018794
13:00+14s4847100 0.0 10171175
16:00+11sse4858100 0.0 1016908
19:00+8sse2489100 0.6 1017313
22:00+6se2397100 1.3 1018117
13 may, thu
thu1301:00+5se229933 0.2 101853
04:00+5ese229798 0.2 101748
07:00+5ese229726 0.0 101773
10:00+13s1270100 0.0 1016635
13:00+16wsw2355100 0.0 1015915
16:00+16wsw2254100 0.0 1014741
19:00+12w1175100 0.0 101446
22:00+7sse119056 0.0 101510
14 may, fri
fri1401:00+6se0088100 0.0 101510
04:00+6e1184100 0.0 101510
07:00+8e1174100 0.0 101434
10:00+16ese124463 0.0 1013466
13:00+19sw2345100 0.0 10121016
16:00+17s2353100 0.0 1012631
19:00+14sse2371100 0.0 1012169
22:00+10se248698 0.1 1012113
15 may, sat
sat1501:00+10se2492100 0.0 1012114
04:00+11se2394100 0.0 1011115
07:00+12se1295100 0.0 1010107
10:00+14sse239099 0.0 1009271
13:00+19s257486 0.0 1007821
16:00+20s2469100 0.0 1005779
19:00+14wnw2495100 0.1 1006336
22:00+11nne226689 0.1 100843